Wind_Speed
38 38 38 38 38 39 40 41 43 44 45 46 46 47 49 50 51 51 52 52 52 52 51 50 49 48 48 47 46 45 44 43 43 42 39 39 39 37 36 36 34 32 30 28 27 25 24 23 24 28 31 34 33 32 31 30 29 29 29 28 26 24 24 20 16 13 16 28 39 41 32 22 23 25 27 29 28 28 24 25 28 26 25 19 16 17 17 17
39 39 39 39 39 39 39 40 40 42 43 44 45 46 47 48 49 50 51 52 53 53 53 52 51 50 49 49 48 47 46 46 45 43 40 41 41 38 37 37 35 34 32 31 29 27 25 24 23 23 26 31 32 32 32 31 29 29 28 27 26 24 22 19 18 19 25 37 43 42 31 21 23 25 28 27 26 30 28 28 29 25 23 21 20 20 18 18
40 40 41 40 40 40 40 40 40 40 41 42 43 44 46 47 48 48 50 51 51 53 53 54 53 52 51 50 50 49 48 48 47 44 42 43 42 39 39 38 37 36 35 33 32 30 27 26 24 23 23 26 30 31 33 32 30 28 28 27 25 24 22 20 26 32 36 40 42 41 29 23 26 27 28 27 28 30 28 30 32 26 22 22 22 21 20 20
39 40 41 42 42 42 42 42 41 41 41 41 41 42 43 45 46 47 48 49 50 51 52 53 53 53 53 52 51 50 50 49 48 46 45 45 43 42 41 39 39 37 36 35 34 32 30 28 26 24 22 23 26 30 33 32 30 28 27 27 24 23 22 24 34 38 37 40 41 37 26 24 29 27 25 27 28 27 27 30 33 28 23 23 23 22 22 20
38 39 40 42 43 44 44 44 43 43 42 42 42 42 42 42 43 45 46 47 48 49 50 51 52 52 52 52 52 51 51 50 50 48 47 47 46 45 43 42 41 39 38 37 35 34 32 30 28 25 22 23 24 27 31 31 30 28 27 27 24 25 26 31 39 38 37 40 39 33 24 27 31 27 24 26 27 26 28 31 34 30 23 24 25 24 22 20
36 37 39 40 42 43 44 45 45 45 45 44 44 43 43 42 42 43 43 45 46 47 48 49 50 51 52 51 51 51 51 51 50 49 47 47 47 47 45 44 42 40 39 38 36 35 34 32 30 27 24 23 23 25 29 30 30 28 28 26 25 29 31 34 38 37 39 39 35 31 28 31 31 28 26 26 27 28 30 33 35 28 22 25 26 23 21 19
34 35 37 38 40 41 43 44 45 46 46 47 47 46 45 44 43 43 43 43 43 45 46 47 49 50 50 51 51 51 50 51 51 49 47 46 46 46 45 44 43 42 40 38 37 36 35 33 31 29 25 24 24 24 27 29 31 29 28 26 25 30 31 32 36 37 37 34 34 34 32 32 28 26 27 28 31 31 33 35 32 25 22 25 23 20 20 18
35 36 36 37 38 39 41 42 43 44 46 47 48 48 48 47 46 45 44 43 43 43 44 45 46 47 48 49 49 50 49 49 49 48 46 44 45 45 45 44 43 43 41 39 38 36 35 34 33 31 27 26 24 24 26 28 30 29 28 27 26 30 30 31 36 38 34 31 33 34 32 30 26 26 28 31 36 35 35 35 29 23 23 24 22 21 19 18
39 39 39 39 39 39 40 41 42 43 44 45 46 47 48 49 49 48 47 46 45 44 44 44 45 45 46 46 47 46 45 45 47 46 45 44 44 45 44 44 43 43 42 41 40 38 37 35 34 32 29 26 25 25 26 27 30 30 28 27 28 31 31 32 36 37 34 30 31 33 32 29 28 32 32 35 38 36 36 33 27 25 24 24 23 22 20 19
41 42 42 42 42 41 41 41 41 42 43 44 45 46 47 48 49 49 49 49 48 47 46 46 45 45 45 45 45 43 41 43 45 45 45 43 42 42 43 43 43 42 42 42 41 40 38 36 34 32 30 28 28 28 27 28 30 30 29 29 31 32 32 33 35 37 33 29 30 32 32 30 33 32 29 36 39 36 36 33 29 29 26 25 24 24 22 20
40 42 44 44 44 44 44 43 42 42 42 43 44 45 46 47 48 49 50 51 51 50 49 48 48 47 47 46 45 43 42 45 46 45 45 42 39 41 42 42 42 42 42 41 41 41 39 36 34 33 33 31 30 29 29 29 28 31 32 32 32 32 33 33 35 36 32 30 31 32 32 33 36 30 27 38 40 35 36 33 30 32 30 26 26 26 24 23
40 42 44 45 45 45 45 45 45 44 44 44 45 45 46 47 48 49 49 50 51 52 52 52 51 50 49 49 46 45 46 48 47 46 44 41 40 41 42 42 42 42 42 41 41 40 39 37 35 35 34 33 32 31 31 29 27 32 34 32 31 31 32 32 35 34 31 31 32 32 31 33 37 31 30 40 38 33 35 31 28 32 31 28 28 27 25 24
41 42 43 45 46 46 46 46 46 45 45 46 46 47 47 48 48 49 49 50 51 52 53 54 54 53 53 50 48 48 50 50 48 46 44 41 41 42 41 42 42 41 41 41 41 40 39 38 37 37 36 35 36 34 33 31 29 32 34 31 30 31 31 33 35 33 31 32 32 31 28 33 37 29 31 41 38 33 33 30 28 32 33 29 29 26 24 22
42 42 43 44 45 46 46 45 45 45 46 46 47 48 48 49 49 50 51 51 51 52 53 54 55 56 56 53 51 53 53 52 50 48 46 44 44 43 42 42 42 41 41 41 41 41 40 39 39 38 38 38 37 35 35 33 30 30 33 32 30 32 32 33 34 32 32 32 31 31 27 31 33 27 34 42 37 33 32 30 30 33 33 28 27 27 24 22
43 43 43 44 44 45 45 45 44 45 45 45 46 47 48 48 49 49 50 51 52 52 52 53 55 56 58 56 55 55 55 54 52 50 49 47 47 45 42 42 42 42 41 41 41 41 41 41 41 40 40 40 38 36 35 34 30 30 32 32 31 32 32 33 34 32 31 30 31 32 28 28 25 25 35 38 33 31 30 30 32 33 32 29 28 27 24 22
45 44 43 43 44 44 44 44 44 43 43 44 45 45 46 47 47 47 47 48 50 51 52 53 54 55 57 57 57 57 57 56 53 52 51 50 49 46 45 44 43 43 42 41 41 42 43 43 43 42 42 41 38 36 35 34 32 30 31 32 31 31 30 30 34 34 29 28 32 30 23 19 18 25 34 34 29 28 29 31 33 35 33 31 31 28 25 22
46 45 43 42 43 43 43 43 43 42 42 42 43 43 44 44 44 44 44 44 45 46 48 50 52 54 54 54 56 57 57 56 55 54 53 53 51 49 47 46 45 45 44 43 43 43 44 44 45 46 45 41 37 36 37 35 32 30 29 32 32 31 28 25 31 35 27 28 33 25 18 13 15 32 36 32 29 27 29 29 29 35 34 30 31 29 25 21
47 45 44 42 42 43 43 42 42 41 41 41 42 42 42 42 42 42 42 41 41 41 42 44 46 49 50 53 54 55 56 56 56 55 55 54 52 51 49 48 47 46 45 45 44 44 44 45 49 48 44 41 38 39 40 35 31 29 28 30 31 31 29 22 28 36 28 27 30 23 24 22 24 37 37 30 31 28 29 29 29 35 34 30 28 25 23 21
47 46 44 42 42 42 42 42 41 41 41 41 41 41 41 41 41 41 41 40 40 40 41 41 41 43 47 51 53 54 55 56 57 57 56 55 54 53 51 50 49 47 46 46 45 45 47 49 51 47 43 42 41 41 39 32 29 28 28 29 29 31 28 21 24 37 32 27 25 24 29 29 34 41 37 30 29 26 28 30 32 33 31 30 28 25 24 23
48 46 44 43 42 42 42 42 42 42 41 41 41 40 41 41 41 41 41 40 40 41 41 41 41 40 43 47 51 53 54 56 58 58 58 57 56 55 53 53 51 49 48 47 47 47 49 50 48 44 43 43 42 41 37 31 29 26 26 28 28 28 25 20 23 36 36 28 23 22 27 31 36 39 37 33 27 24 27 28 32 33 30 30 29 27 26 24
49 46 44 43 42 42 43 43 43 42 42 42 41 41 41 41 41 41 40 40 40 41 42 42 41 41 42 44 48 51 53 55 57 58 58 58 57 56 55 55 52 50 49 48 48 49 49 49 46 43 44 43 42 41 36 32 31 25 21 26 28 25 20 18 23 35 35 27 22 23 29 33 36 35 37 34 27 24 25 26 29 32 30 30 30 29 28 26
49 46 44 43 42 42 43 43 43 43 42 43 43 43 42 41 41 41 41 40 40 41 42 43 43 41 42 45 46 49 53 55 56 58 58 58 58 57 57 56 53 51 50 50 51 51 51 49 45 44 44 44 42 41 38 34 34 28 20 22 25 22 19 18 23 31 29 21 23 26 31 35 36 35 35 33 29 25 23 24 28 31 31 31 31 29 28 26
50 46 44 43 42 42 43 44 44 43 43 43 44 44 43 42 42 42 42 41 41 42 42 43 44 41 43 47 46 48 52 54 54 56 58 59 58 57 57 56 53 52 52 52 52 52 52 49 46 46 45 44 42 42 40 35 35 34 26 20 23 23 23 23 25 28 27 20 23 24 29 35 36 35 34 32 33 30 24 23 24 29 32 31 29 28 27 26
49 45 43 42 42 42 43 44 44 43 42 43 44 44 44 43 43 43 42 41 41 42 42 43 44 43 44 47 47 48 50 51 51 52 55 58 58 56 57 55 53 53 53 52 52 51 51 48 46 46 45 44 43 44 42 38 36 38 32 24 23 25 25 24 25 26 25 20 22 23 31 36 35 34 35 33 34 35 32 29 26 28 31 29 29 28 25 25
49 45 42 42 41 41 43 44 43 42 41 41 43 43 44 43 43 42 42 42 40 41 43 44 45 44 45 48 47 47 48 50 50 51 53 56 57 56 56 55 53 54 53 51 51 50 49 48 47 46 45 44 45 45 42 40 37 38 38 29 23 25 24 24 29 28 25 22 27 33 39 38 34 34 36 35 34 35 35 34 32 32 31 30 30 29 26 22
49 45 42 42 41 42 43 42 41 40 39 40 41 41 41 40 40 40 40 40 39 40 42 43 44 43 44 46 45 45 48 49 49 50 52 54 55 54 54 55 54 53 52 50 50 50 49 49 47 45 45 45 44 45 42 40 40 41 43 35 25 23 24 25 33 33 27 24 28 33 37 36 35 34 34 34 34 35 34 35 37 36 33 30 29 29 28 24
48 44 42 41 41 42 42 40 38 37 37 38 37 37 38 36 36 36 36 37 34 34 38 39 40 41 40 41 43 43 45 46 47 50 52 52 52 53 54 54 54 53 51 51 50 51 49 49 49 45 45 46 45 46 44 41 43 41 39 38 32 26 24 27 34 35 27 25 26 30 34 36 35 33 32 31 31 33 33 34 37 38 35 31 30 30 30 27
47 44 41 41 41 41 40 37 37 37 35 34 34 34 33 32 31 30 30 30 27 26 30 33 35 35 34 37 41 40 38 41 44 47 50 51 51 53 54 54 53 51 51 52 52 51 50 49 49 47 45 46 46 46 44 41 43 36 29 36 37 29 25 28 35 36 27 26 30 32 34 36 36 35 35 33 32 35 36 35 35 36 34 32 31 31 30 28
46 42 40 40 40 40 38 35 35 34 30 28 29 29 28 28 27 26 26 25 22 21 23 28 29 26 27 33 37 37 36 38 39 42 47 50 52 52 53 53 51 49 50 51 49 46 47 49 47 46 47 46 45 46 42 41 46 36 22 28 36 33 26 28 33 32 27 29 33 32 30 31 34 37 38 36 36 38 38 37 35 33 31 32 32 31 31 30
43 40 39 39 39 38 35 32 32 31 28 27 27 26 26 25 23 24 24 20 16 17 21 23 21 20 24 29 32 34 36 37 37 40 45 46 49 51 52 51 46 45 47 47 42 35 37 44 42 40 47 47 43 44 41 40 45 37 21 21 35 40 29 28 32 28 27 31 32 33 31 28 30 36 37 36 37 40 40 36 33 30 29 31 32 31 31 30
39 38 37 37 37 35 32 31 31 29 27 27 27 25 23 22 22 20 17 15 14 15 18 19 17 18 21 24 27 30 35 37 37 41 44 42 46 50 52 52 45 41 45 43 39 30 25 36 39 34 43 48 40 41 43 40 40 38 27 20 34 42 31 27 33 32 31 31 29 30 32 31 32 36 37 36 38 42 40 35 33 29 27 29 31 31 31 29
36 35 36 35 34 32 31 31 31 28 27 27 25 24 23 22 21 17 14 15 16 15 16 16 18 18 16 18 21 25 32 37 38 41 44 42 45 50 52 54 51 46 49 47 42 37 27 32 41 35 34 42 43 43 44 36 32 38 34 24 32 42 32 27 35 36 33 31 25 24 29 31 31 35 37 36 39 41 37 33 32 29 27 30 31 31 30 27
33 34 34 33 31 31 32 32 31 29 28 28 26 25 25 21 17 16 16 16 16 16 16 16 17 16 15 16 17 21 30 36 36 37 41 41 41 47 50 53 52 48 50 49 42 39 32 29 39 37 29 37 47 46 41 32 31 43 43 30 34 45 39 33 36 35 34 32 26 24 28 30 30 35 41 40 43 44 37 30 30 29 29 31 32 30 28 26
32 32 31 30 31 33 33 33 32 31 31 29 27 26 24 19 18 19 19 17 17 17 18 18 18 17 16 16 15 21 31 35 33 29 34 39 40 44 50 52 53 47 44 44 38 36 36 32 36 39 35 41 48 42 34 29 32 47 47 31 31 44 45 40 33 27 27 26 23 25 30 33 34 39 44 43 43 40 31 26 26 29 32 32 31 29 27 25
30 30 29 30 32 33 34 34 33 33 31 29 28 26 22 20 20 18 18 19 18 15 17 19 20 19 17 18 17 21 30 35 33 25 27 38 42 45 49 49 52 49 41 39 37 34 36 34 32 32 31 38 46 41 32 29 35 46 45 32 30 37 40 39 32 25 25 24 23 27 31 34 38 41 43 42 41 36 29 26 26 29 32 32 31 29 27 25
26 27 28 29 32 34 36 36 35 34 31 29 29 25 23 23 21 17 17 18 16 15 18 19 21 21 18 21 23 22 27 32 32 26 26 34 41 44 47 49 51 50 44 39 36 34 35 32 32 34 31 32 43 44 36 30 35 45 44 32 27 30 31 34 33 30 31 29 28 33 35 35 39 42 43 42 40 36 31 30 31 30 32 31 28 27 25 24
24 25 26 28 31 33 36 36 35 33 30 30 29 25 23 24 22 20 17 14 13 17 21 20 23 24 20 22 27 24 27 30 29 28 28 30 36 41 45 49 47 46 46 39 31 32 33 27 29 37 36 34 37 41 38 29 31 44 44 30 23 27 28 28 28 29 32 31 29 34 37 37 40 43 44 42 39 37 33 31 32 32 32 30 26 25 24 24
21 23 26 27 30 32 34 35 34 32 30 31 29 26 26 26 23 21 16 13 13 18 23 23 24 26 24 24 26 23 29 33 28 30 30 27 33 39 44 49 46 44 47 41 30 30 30 24 24 29 32 32 32 39 39 29 30 38 37 29 25 29 30 28 28 29 33 34 30 32 37 39 42 44 44 41 37 36 33 32 32 33 33 30 26 24 24 24
22 25 26 27 28 29 32 33 32 31 31 30 29 27 27 25 21 16 13 13 15 18 23 24 25 27 27 26 25 23 30 31 26 30 30 26 29 35 42 48 47 46 48 41 32 29 27 25 26 27 26 26 30 43 42 30 33 38 32 29 28 29 30 30 29 27 29 34 32 33 37 38 42 45 43 41 37 34 33 32 33 34 33 30 25 24 24 25
25 25 25 25 25 26 29 31 31 31 30 29 29 28 27 24 19 15 13 15 17 20 23 24 26 27 27 28 27 29 31 26 23 29 28 26 27 30 37 42 42 44 47 41 32 25 24 26 28 29 28 25 29 43 42 31 34 38 32 31 31 31 29 28 29 24 23 29 33 35 38 37 39 42 41 39 38 36 34 33 34 35 33 30 26 24 26 27
25 25 24 21 21 24 27 29 30 30 29 28 29 29 28 24 18 13 13 15 17 21 23 23 26 27 27 29 29 34 35 26 24 28 26 26 28 27 34 40 39 41 45 43 33 24 24 31 31 29 30 31 31 36 38 34 33 31 27 26 30 33 31 29 32 27 21 24 28 33 38 39 37 36 38 39 40 39 36 33 33 33 33 30 27 26 28 29
26 26 22 18 18 23 26 27 28 28 28 30 30 28 25 21 15 12 12 14 16 20 22 23 27 28 29 30 30 35 37 28 25 29 27 27 29 27 32 39 39 39 43 44 35 26 27 33 33 28 29 34 34 35 39 35 27 27 28 26 27 32 32 31 32 28 22 22 23 26 33 38 37 36 37 39 38 39 38 34 33 32 31 30 29 29 29 29
27 25 22 18 17 21 24 24 27 29 30 31 30 26 22 19 16 14 13 13 15 18 21 25 29 29 28 31 34 36 37 30 29 30 27 26 27 27 30 36 36 36 40 42 36 30 30 34 34 28 25 27 27 30 37 35 27 27 31 28 27 30 30 28 29 29 26 23 23 27 31 32 33 35 37 35 31 31 33 33 32 30 30 31 31 31 30 29
25 23 20 18 16 18 21 23 27 31 31 30 28 24 22 20 18 15 13 13 15 17 21 27 30 29 28 33 37 37 35 32 31 31 28 25 26 27 30 35 36 35 38 40 38 35 33 33 35 31 26 26 28 28 32 39 37 27 26 29 28 27 27 25 27 31 31 27 24 27 31 29 28 29 32 31 28 26 27 29 31 30 30 32 32 31 30 29
22 18 15 15 16 17 20 25 30 32 30 29 26 23 21 20 17 16 14 14 16 19 24 28 28 28 31 36 39 37 35 33 31 31 27 25 27 28 29 34 36 36 38 39 39 37 34 33 36 35 29 28 33 33 32 42 44 28 24 33 30 27 30 28 27 31 32 29 25 26 30 29 27 28 28 26 26 25 24 26 29 31 31 31 30 30 30 29
21 15 12 15 18 20 24 29 32 31 29 28 26 22 19 16 14 14 13 13 16 22 27 29 28 30 34 37 37 35 33 32 32 30 24 23 28 28 28 32 33 33 35 38 39 38 36 33 33 35 31 25 27 29 27 39 48 37 31 32 28 29 34 30 30 32 29 26 24 27 29 28 27 28 25 22 23 24 23 22 25 28 29 29 30 30 29 30
20 17 15 18 22 25 28 30 30 29 27 26 24 20 16 14 13 13 13 14 19 25 29 29 29 30 33 35 35 34 33 33 32 28 26 28 31 28 28 31 32 31 33 36 38 37 36 34 33 34 33 26 24 24 23 32 41 36 30 27 27 33 33 25 30 31 25 23 25 27 28 28 26 25 22 19 20 22 23 23 23 25 26 27 29 29 30 31
23 21 19 21 24 27 28 29 28 26 25 24 20 16 14 13 13 13 14 16 21 26 30 29 27 27 31 34 35 33 31 31 31 31 31 33 33 31 31 31 31 32 34 36 38 37 36 36 34 33 32 27 24 24 22 26 31 31 29 26 29 36 34 27 30 31 27 28 29 28 27 29 28 27 24 21 18 18 21 22 23 24 25 27 28 29 30 30
24 22 21 23 25 27 27 26 25 24 23 21 17 14 13 12 12 13 14 17 21 26 30 29 26 27 30 33 33 31 28 29 32 33 33 33 34 35 33 31 31 32 35 36 36 36 36 36 35 33 31 28 26 26 25 24 27 32 31 25 25 30 33 32 32 34 33 33 32 29 26 27 28 28 29 26 22 19 19 21 22 23 25 27 28 28 29 30
23 20 21 24 24 24 25 24 24 23 21 18 17 15 13 11 10 11 14 17 21 25 29 30 28 28 30 33 31 26 26 29 31 32 31 31 34 35 33 33 32 31 33 34 33 35 37 37 36 34 32 29 27 28 28 25 26 29 30 27 26 28 32 35 35 36 36 36 36 34 29 27 27 27 28 27 24 22 22 23 23 23 24 25 27 28 29 30
22 21 24 25 23 22 21 21 21 21 20 19 18 15 11 10 9 12 15 18 21 24 27 30 32 31 31 34 30 23 24 29 29 30 29 30 33 34 31 31 31 31 34 34 34 36 38 37 37 36 34 33 31 30 31 30 29 31 32 33 35 36 37 39 40 40 38 37 38 36 32 29 27 26 25 24 22 23 23 23 23 23 25 26 28 29 30 31
25 26 27 25 22 20 18 18 22 23 21 19 16 13 10 8 9 12 15 19 23 25 27 30 34 33 31 33 30 24 24 25 26 28 29 29 32 35 32 30 31 32 33 34 34 36 36 35 35 36 35 34 33 32 34 35 35 37 39 38 38 40 40 40 43 44 41 39 38 37 34 30 28 27 25 23 23 24 23 23 24 25 27 28 29 30 30 31
Wind_Direction
263 262 261 260 259 257 256 255 254 253 252 251 250 250 249 249 248 248 247 247 246 246 246 246 246 246 246 246 246 246 247 248 248 248 249 250 249 250 251 251 251 253 253 253 253 252 252 250 248 245 242 241 240 241 242 240 240 240 241 242 240 236 232 224 226 227 217 232 241 243 242 236 235 223 222 227 226 233 227 226 232 233 241 242 242 248 247 245
263 262 262 261 260 259 257 256 255 254 253 252 251 250 250 249 248 248 247 247 246 246 246 246 246 246 246 246 246 246 246 246 247 247 248 249 248 249 249 250 251 251 252 252 253 252 252 251 249 247 243 241 239 239 240 239 237 238 240 240 238 233 223 215 214 211 217 231 239 244 241 230 231 223 223 229 229 234 230 232 239 238 241 244 246 251 248 244
264 262 262 261 260 259 258 257 256 255 255 254 252 251 250 250 249 248 247 247 246 246 245 245 245 246 246 246 246 246 246 245 245 245 246 247 247 247 248 249 249 249 250 250 251 252 252 251 250 249 246 242 239 237 239 238 236 236 238 237 236 231 215 212 220 218 223 232 240 246 239 225 230 226 221 222 226 234 234 238 245 241 237 242 246 248 246 243
265 264 262 261 260 259 258 258 256 255 255 254 253 252 251 250 250 248 248 247 246 246 245 245 245 245 245 246 246 246 246 246 245 244 245 246 246 246 246 246 247 247 248 248 249 250 251 251 250 250 248 246 241 237 238 238 236 235 236 235 234 229 214 215 226 226 231 237 242 248 241 227 230 230 224 222 227 233 236 240 244 241 235 240 245 243 244 242
267 266 264 262 260 259 258 257 256 256 255 254 254 253 252 251 250 249 248 247 246 245 245 245 245 245 245 245 245 245 245 245 243 242 243 244 244 244 244 244 245 246 246 247 248 248 250 250 250 250 248 248 244 239 238 238 236 234 234 234 230 224 215 221 231 231 234 238 242 247 243 230 226 224 222 224 229 230 233 239 240 238 234 238 240 239 242 240
270 268 266 264 262 260 259 257 256 255 255 254 253 253 252 251 250 249 249 248 246 245 244 244 244 244 244 244 244 243 244 244 243 241 242 243 243 243 243 244 245 245 246 247 247 248 248 249 249 249 246 247 247 242 239 237 235 233 232 232 231 229 224 228 237 235 235 238 240 240 234 230 225 217 216 219 226 228 229 235 240 236 229 234 237 237 242 240
273 271 269 267 265 263 261 259 257 255 254 254 253 252 252 251 250 249 249 248 247 246 244 243 243 242 242 242 242 242 242 243 242 241 241 242 243 243 243 244 244 244 245 246 246 246 246 247 247 246 244 244 246 244 240 237 235 233 232 230 229 235 233 235 241 239 238 240 238 235 229 228 225 217 215 217 224 230 230 234 240 237 229 234 238 237 242 238
274 272 271 270 268 266 263 261 259 257 255 254 253 252 251 251 250 249 249 248 247 246 245 243 242 241 240 240 240 240 240 241 241 240 239 240 241 242 242 243 243 243 244 244 244 245 244 245 245 244 242 240 242 243 240 237 235 232 232 232 230 235 236 235 241 242 239 238 238 238 232 227 223 217 214 216 222 227 233 234 236 238 236 238 240 241 241 234
276 273 272 270 269 268 266 264 261 259 257 255 254 252 252 250 250 249 248 248 247 246 245 244 242 240 239 238 237 236 236 239 238 237 237 236 237 239 240 240 241 241 241 242 242 242 243 242 242 241 239 237 237 239 240 237 234 231 231 232 232 233 235 234 239 242 238 234 235 237 235 226 221 220 216 220 223 226 233 235 234 238 239 237 240 243 240 234
280 276 273 271 269 268 267 266 264 261 259 257 255 253 252 251 250 248 248 247 247 246 246 245 243 241 239 236 235 232 233 237 236 234 235 234 234 236 238 238 239 239 239 240 240 241 241 241 239 238 236 235 235 236 238 238 234 231 229 231 232 232 234 235 238 242 239 235 232 233 233 226 222 222 221 226 225 225 231 233 235 239 240 239 241 243 241 239
286 280 275 272 270 268 267 266 265 263 261 259 257 255 253 252 251 249 247 247 246 246 245 244 244 242 240 237 233 231 232 235 234 233 233 233 233 234 236 237 237 237 237 238 238 239 239 238 235 235 235 235 236 236 237 238 234 232 229 228 232 233 234 235 237 241 239 236 233 230 229 227 224 215 216 228 226 225 230 230 235 240 240 240 241 242 240 239
292 286 279 274 271 269 267 266 265 264 263 261 259 256 254 252 251 250 248 247 245 245 244 244 243 242 240 237 233 232 233 234 234 234 234 233 233 233 234 236 236 235 235 236 236 236 236 235 232 232 233 233 234 235 237 238 232 232 232 229 232 236 236 237 238 239 239 236 233 231 228 229 226 212 216 231 226 223 231 230 234 240 239 237 237 238 236 235
295 291 284 277 272 269 267 266 265 265 263 262 260 258 255 253 251 250 249 248 246 245 244 243 242 241 240 236 234 235 235 234 233 234 234 233 233 233 233 235 236 235 234 234 235 235 233 233 232 231 231 231 232 232 235 237 232 232 235 231 233 237 237 238 239 238 238 237 234 233 229 231 230 215 219 232 227 223 228 228 230 236 238 239 241 242 242 241
297 294 287 280 274 271 268 267 266 265 263 262 261 259 257 254 252 249 248 247 246 245 244 243 242 241 240 237 236 237 236 234 233 233 232 232 232 232 232 234 236 235 234 233 233 233 232 232 231 230 230 231 231 232 235 236 232 232 234 231 231 237 237 238 240 239 239 238 238 233 225 231 234 217 221 230 228 225 226 226 228 233 236 240 246 247 248 249
297 295 290 282 276 272 269 267 266 265 263 262 261 259 257 255 252 250 248 246 245 245 244 244 242 241 240 237 236 237 236 235 233 232 232 232 231 231 231 232 234 235 233 231 231 231 231 231 231 230 230 231 231 231 233 234 232 230 232 230 229 235 238 239 240 238 239 240 238 235 224 227 234 224 228 232 230 230 230 229 230 234 236 238 242 242 242 244
297 296 291 283 277 273 270 268 267 265 264 262 260 258 256 254 252 250 248 247 245 245 244 244 243 242 240 238 237 237 236 235 233 233 232 231 230 230 229 230 231 233 233 230 228 228 229 230 231 230 229 230 230 231 232 233 233 231 231 230 229 234 237 242 242 236 236 239 238 237 224 221 240 240 235 231 229 232 233 229 230 235 237 237 240 239 240 242
296 296 291 284 277 274 271 269 267 265 263 261 259 257 254 252 251 249 247 246 245 244 244 244 243 243 242 240 239 238 237 235 233 233 232 230 230 229 228 229 229 230 231 229 227 227 228 229 230 230 228 229 228 228 231 233 234 234 231 227 228 234 233 236 246 240 231 235 239 229 199 186 231 245 239 228 224 226 229 225 227 235 236 234 238 240 243 247
295 295 291 284 277 274 272 269 267 265 263 260 258 255 253 251 249 247 246 244 244 244 244 244 244 243 243 241 240 238 237 235 233 232 231 230 229 228 228 228 228 229 228 228 227 226 226 227 229 229 229 229 227 228 233 233 234 236 231 225 226 234 230 223 244 248 235 235 239 211 187 182 200 229 235 223 218 223 228 224 224 233 235 235 239 241 244 246
295 294 290 284 277 273 271 269 266 264 261 259 257 254 251 249 247 245 244 244 244 244 244 245 244 243 243 242 239 238 236 234 232 231 230 229 228 227 227 227 227 227 227 228 227 226 225 226 229 230 229 229 228 230 233 231 230 232 231 226 226 236 233 213 233 251 244 238 237 203 195 202 203 218 229 224 219 221 229 227 226 232 235 240 243 243 245 246
294 293 289 283 277 273 270 267 265 262 260 257 255 253 250 247 245 244 244 244 245 246 246 247 246 245 244 244 241 238 236 233 231 230 228 227 226 226 225 225 226 225 226 228 227 226 226 227 230 232 231 228 226 227 227 225 222 225 230 225 222 234 233 206 222 248 248 244 238 202 195 214 215 217 227 231 230 226 227 228 229 232 234 238 241 241 245 246
293 292 288 282 277 272 269 266 263 260 258 255 254 252 249 246 245 245 244 244 246 247 247 247 248 247 245 245 243 240 237 234 231 229 228 226 225 224 224 225 225 225 225 225 225 225 226 229 231 230 228 227 225 224 222 219 217 214 222 228 222 223 219 200 219 246 251 244 230 195 191 217 224 222 228 233 234 232 227 226 230 233 233 234 236 237 241 241
292 290 286 280 276 272 269 266 263 259 256 254 253 251 249 246 246 246 246 246 246 246 246 245 246 246 245 244 244 242 239 235 231 228 227 225 224 223 224 224 223 224 224 222 224 225 227 229 228 226 225 223 223 223 219 215 217 207 202 228 223 206 201 200 215 241 252 233 212 200 200 219 227 225 230 231 229 230 226 223 226 228 231 234 236 239 241 240
291 288 283 279 274 271 268 265 263 260 256 254 252 251 249 248 247 247 247 248 248 248 247 245 245 244 243 244 244 241 239 236 232 230 227 224 223 222 223 223 222 222 222 222 225 227 229 228 225 222 221 221 220 221 218 210 215 209 193 212 222 201 191 197 209 232 243 217 195 203 210 220 227 225 228 229 227 227 224 225 224 225 231 235 239 242 244 243
289 286 281 277 273 270 267 265 263 260 257 255 253 252 250 249 248 248 248 248 249 249 248 245 243 242 241 243 243 241 239 237 233 231 228 225 223 221 222 222 220 221 221 222 225 227 229 227 223 220 219 220 218 219 218 207 212 213 196 192 214 207 181 186 209 219 224 201 173 192 213 219 225 226 226 229 229 227 227 230 229 226 229 230 234 237 237 234
287 283 278 274 271 268 266 265 264 261 258 256 253 252 250 249 249 249 249 250 249 249 247 245 243 242 241 241 241 240 238 234 230 228 227 224 222 221 221 221 218 220 221 221 222 224 226 225 223 221 219 219 218 219 218 208 209 212 204 191 196 203 183 187 210 204 200 189 170 191 213 220 226 228 227 227 230 230 227 228 227 224 224 223 227 234 235 229
284 280 275 271 269 266 265 265 264 262 259 256 253 252 250 249 249 248 249 249 249 248 247 246 244 242 242 241 240 237 235 232 228 226 225 222 220 219 219 219 218 218 219 219 219 221 222 223 221 220 218 217 217 219 217 210 208 209 212 202 180 189 195 200 212 206 197 187 181 200 215 222 228 228 227 225 228 231 227 227 228 224 222 223 228 237 242 241
280 276 272 268 265 264 264 263 261 259 255 253 252 250 248 247 246 246 247 247 247 249 248 247 245 242 241 239 237 234 233 232 227 223 223 219 217 215 215 217 217 215 215 215 216 218 219 221 220 217 217 217 216 218 217 211 210 211 213 207 186 180 193 205 218 216 200 182 191 216 222 225 230 229 228 225 225 230 228 228 230 228 227 230 234 240 244 246
276 272 268 265 263 262 260 258 256 253 251 251 249 247 244 243 242 242 242 243 243 245 247 247 246 243 241 237 234 231 228 228 225 222 222 218 214 212 211 214 214 213 213 213 215 217 217 219 219 215 214 217 215 217 218 212 210 211 207 205 194 176 181 207 224 227 216 196 200 218 224 226 229 229 232 231 229 232 231 229 230 231 232 232 235 239 241 243
272 269 264 261 259 258 256 253 250 248 245 244 244 240 236 235 235 234 235 235 234 233 238 245 247 243 239 234 231 227 221 220 220 220 221 219 214 210 209 211 211 209 210 212 213 215 217 216 218 217 214 215 215 215 217 215 214 211 201 205 192 169 174 206 224 232 225 207 203 212 220 223 227 231 233 232 232 233 232 230 230 232 233 230 231 235 238 239
269 264 260 257 255 253 250 245 241 240 233 228 228 226 225 226 224 226 227 224 219 221 227 235 239 236 231 228 224 222 219 214 211 214 218 218 214 209 206 206 205 204 206 209 208 208 219 216 213 218 215 213 216 215 213 216 216 206 191 203 189 172 176 200 215 224 215 207 206 208 212 215 224 233 235 235 237 238 238 235 232 233 233 231 229 230 233 235
265 260 256 253 250 247 241 232 230 228 221 218 218 216 215 213 211 213 212 200 195 213 226 225 225 227 229 228 219 214 215 208 203 209 213 213 212 207 202 200 199 197 199 204 203 197 212 215 208 213 216 211 213 214 212 214 215 199 183 199 194 178 174 193 209 214 209 210 210 207 211 214 220 233 238 238 239 241 242 237 233 233 235 234 231 228 229 230
260 255 250 247 243 237 226 220 220 216 207 207 208 205 201 198 199 194 182 180 185 206 224 222 223 225 227 231 220 209 211 206 200 207 208 207 209 206 204 203 200 198 197 200 203 197 201 213 208 208 212 207 208 211 209 208 208 195 183 191 195 182 177 194 205 208 213 217 213 209 217 218 218 230 240 243 241 240 240 235 231 232 234 235 232 229 228 227
254 249 244 239 232 223 215 210 209 203 196 198 198 194 191 186 181 171 166 174 183 200 214 217 221 220 216 225 219 204 207 203 196 204 208 205 206 205 204 203 199 200 200 198 202 199 194 205 207 203 204 203 205 206 204 200 195 193 189 188 192 187 186 198 202 207 218 220 211 208 218 219 217 226 234 239 240 239 240 237 234 233 234 235 232 229 227 226
247 243 237 229 220 213 206 201 199 195 192 195 193 187 182 169 159 161 165 173 180 192 205 211 215 213 210 214 210 201 201 196 190 200 209 204 202 203 201 201 198 198 198 195 198 199 195 201 204 202 210 211 206 202 202 201 191 192 193 191 195 194 194 199 199 204 217 214 207 210 215 216 217 224 231 235 238 240 239 237 234 231 232 234 231 227 225 226
242 236 226 218 210 203 199 195 195 193 190 191 189 182 169 153 156 167 174 177 179 188 203 210 210 211 211 197 192 203 199 188 182 194 210 203 201 202 199 201 201 195 190 190 197 201 197 202 204 201 210 216 211 202 197 200 195 192 193 195 201 198 197 204 201 199 212 212 209 213 215 217 220 227 233 235 238 239 234 229 225 224 226 229 229 227 225 224
235 226 215 206 201 197 195 193 193 192 189 188 185 173 156 153 163 173 178 182 189 203 208 206 202 204 206 185 179 197 196 181 178 191 207 202 200 202 197 197 199 194 188 188 196 201 197 201 210 207 204 210 214 205 191 198 203 196 194 197 202 196 199 213 207 197 206 208 209 213 213 218 222 226 232 235 237 237 231 226 223 221 223 225 227 226 223 221
224 213 199 193 194 194 193 193 194 190 186 187 180 164 157 165 170 171 178 187 203 211 205 202 201 196 199 185 176 188 187 177 182 196 203 200 200 202 195 192 197 195 189 187 194 201 197 200 216 219 213 212 215 203 188 196 201 195 196 199 197 192 199 216 210 199 204 205 211 219 216 219 224 227 232 234 236 237 234 228 224 223 225 225 226 223 220 220
207 191 182 186 192 193 192 193 193 188 187 186 175 167 171 175 174 175 186 192 196 204 199 200 201 192 193 187 177 183 181 176 188 197 199 203 202 201 194 191 194 191 186 186 190 196 194 196 213 221 215 213 211 192 184 195 194 188 199 205 196 192 198 209 210 205 205 202 210 223 222 222 226 230 234 234 235 238 236 232 229 228 227 225 224 220 218 221
175 169 175 185 190 191 191 192 191 188 188 182 173 175 180 176 174 179 191 194 194 203 201 201 200 193 192 184 172 179 183 181 188 190 193 202 202 203 198 193 193 189 186 188 187 186 186 190 208 214 203 202 200 185 180 193 189 182 197 206 195 193 200 210 214 210 207 205 210 222 224 225 228 232 235 234 235 238 239 236 231 228 228 225 220 217 219 224
160 164 174 183 186 188 190 191 191 188 186 179 174 181 182 175 175 179 190 202 204 206 202 200 199 194 191 182 168 171 183 194 193 183 188 193 193 206 202 192 192 190 189 189 185 184 182 186 207 215 200 193 196 190 187 194 192 186 194 203 198 194 196 209 218 215 210 209 213 222 227 228 229 231 233 232 233 235 236 234 229 227 229 226 219 216 221 226
158 162 166 172 181 187 189 190 191 188 185 181 179 183 183 179 179 181 194 205 205 204 203 200 195 188 185 180 170 168 178 196 200 186 186 182 178 196 198 188 189 190 189 188 186 190 186 186 199 206 200 201 207 205 198 195 197 195 196 200 199 194 191 204 215 214 211 210 214 224 231 232 232 233 235 236 234 233 234 233 228 227 229 226 220 219 223 227
156 158 155 158 178 190 191 192 192 189 185 182 180 182 185 185 183 187 198 203 203 204 204 199 190 186 185 180 172 170 172 185 200 192 187 182 177 186 191 188 189 190 189 189 190 188 184 189 198 198 200 207 212 212 204 197 200 204 202 197 195 194 194 202 210 213 216 214 214 223 231 234 235 236 239 241 238 233 232 231 227 226 227 224 221 223 226 230
155 156 152 160 184 194 193 193 190 184 181 180 180 180 181 184 187 193 199 200 203 206 203 196 189 186 187 180 173 170 168 177 197 194 185 183 181 183 184 185 187 189 188 190 192 188 181 189 198 198 198 201 203 207 206 201 198 201 203 199 196 200 200 201 206 213 219 217 213 221 228 231 232 234 238 239 236 231 229 228 225 222 222 221 222 226 230 234
154 153 153 163 183 189 185 182 177 175 176 177 177 179 181 184 190 194 195 196 204 206 196 189 188 188 185 178 172 170 170 178 192 192 184 180 181 183 182 182 184 187 188 191 195 194 189 190 192 190 185 181 185 196 203 197 192 199 206 196 192 202 207 207 209 212 217 215 210 219 228 232 232 234 239 239 236 234 230 226 221 217 218 220 224 229 233 236
134 140 148 158 170 175 172 168 166 168 173 173 174 180 182 185 190 192 193 201 206 199 186 183 188 186 179 175 172 173 176 180 184 186 182 176 177 181 181 182 185 186 189 193 196 197 198 198 195 193 190 186 189 196 201 196 193 198 200 192 193 201 204 210 214 213 214 214 211 216 223 229 232 234 240 243 238 234 230 225 220 217 219 222 226 231 235 238
113 124 148 154 155 156 156 159 163 167 170 172 175 180 177 179 188 189 192 204 202 190 182 181 184 181 177 177 175 176 179 179 178 178 175 174 177 177 178 182 185 187 191 193 195 199 202 203 202 201 202 202 200 200 201 199 197 198 197 199 201 193 190 203 217 216 212 211 217 220 217 223 231 234 238 239 232 228 225 223 221 220 222 225 227 230 234 238
113 124 141 145 144 145 149 156 162 166 169 172 175 177 174 177 185 187 191 196 192 186 181 179 179 181 184 184 180 180 181 179 175 173 172 177 180 175 172 176 181 186 190 191 193 198 201 201 204 204 202 202 199 196 200 202 200 199 199 205 203 189 185 201 218 218 211 211 221 223 218 221 228 230 232 229 225 224 222 221 221 221 223 226 228 231 234 238
122 127 133 137 137 139 145 152 159 164 168 171 173 175 176 179 185 189 191 189 189 188 183 180 181 182 184 183 182 182 180 176 177 178 177 178 178 171 169 174 180 183 185 188 192 196 199 200 201 200 199 199 193 189 196 203 202 200 199 204 207 197 189 196 216 221 216 215 222 225 224 224 225 227 228 223 218 220 221 223 224 224 225 226 228 232 235 239
124 126 130 134 133 134 142 151 158 164 168 169 170 170 170 175 183 187 186 187 190 189 185 184 183 180 179 179 180 181 179 174 178 182 179 177 176 172 170 175 183 184 184 187 191 195 198 201 199 196 198 198 188 182 191 200 201 200 198 198 208 207 195 194 211 221 218 217 222 224 226 226 226 230 231 227 225 225 226 228 227 226 227 228 231 234 237 240
123 125 133 137 135 137 145 152 158 164 165 163 161 159 161 170 181 184 183 185 188 189 188 187 183 180 180 179 178 182 183 179 178 180 179 178 177 177 175 177 182 184 183 185 189 194 197 198 197 197 197 195 187 184 190 195 195 196 196 192 197 206 204 201 208 216 217 218 220 221 223 227 230 233 236 235 232 227 228 228 227 226 227 228 232 235 237 241
126 131 136 137 135 137 143 149 156 157 152 148 147 149 153 162 178 189 188 187 188 190 191 189 186 184 183 181 178 175 177 180 178 177 178 178 180 181 180 181 184 184 184 186 190 194 197 196 196 197 197 195 194 189 187 188 188 191 195 194 191 197 203 204 207 213 215 216 220 221 223 227 231 234 237 237 228 222 224 225 225 227 228 230 233 236 238 241
132 133 133 134 134 135 138 146 150 144 140 139 139 144 151 156 182 196 184 180 188 191 190 188 187 185 183 182 180 171 169 178 182 180 178 179 183 186 184 185 189 187 185 190 193 195 197 197 197 199 197 197 200 196 190 189 187 188 194 198 195 197 201 201 205 211 213 214 220 223 223 227 232 232 232 230 223 222 224 223 224 226 229 232 235 236 238 239
Height
5719 5719 5720 5720 5720 5721 5721 5722 5723 5723 5725 5726 5727 5729 5730 5732 5733 5735 5737 5740 5742 5744 5746 5748 5750 5752 5754 5756 5758 5760 5762 5764 5766 5769 5772 5773 5774 5778 5779 5780 5783 5784 5787 5788 5789 5791 5792 5794 5795 5796 5798 5800 5802 5804 5806 5808 5810 5811 5813 5815 5818 5821 5822 5825 5827 5829 5830 5826 5821 5822 5830 5836 5836 5839 5839 5839 5841 5841 5843 5841 5838 5840 5841 5844 5846 5847 5848 5849
5715 5715 5715 5716 5716 5716 5717 5717 5718 5718 5719 5721 5722 5723 5725 5726 5728 5730 5732 5734 5736 5738 5741 5743 5745 5747 5749 5751 5753 5755 5758 5760 5762 5766 5769 5769 5771 5774 5775 5777 5780 5782 5784 5785 5787 5788 5790 5791 5792 5794 5795 5797 5799 5801 5802 5804 5807 5809 5810 5812 5815 5818 5820 5823 5823 5824 5824 5820 5818 5820 5830 5835 5834 5837 5837 5839 5840 5838 5841 5839 5837 5841 5843 5844 5845 5845 5847 5848
5710 5710 5710 5711 5711 5711 5712 5713 5713 5714 5715 5715 5717 5718 5719 5721 5722 5724 5726 5728 5731 5733 5735 5737 5739 5742 5744 5746 5748 5751 5753 5755 5758 5762 5764 5764 5767 5770 5772 5774 5776 5778 5780 5782 5784 5785 5787 5788 5790 5791 5793 5794 5796 5798 5799 5801 5804 5806 5808 5810 5813 5815 5818 5819 5818 5817 5818 5817 5816 5820 5829 5833 5832 5834 5836 5838 5837 5837 5839 5837 5835 5840 5842 5842 5844 5845 5846 5847
5706 5705 5705 5706 5706 5706 5707 5708 5709 5709 5710 5711 5712 5713 5714 5716 5717 5719 5721 5723 5725 5727 5729 5731 5734 5736 5739 5741 5743 5746 5748 5751 5754 5758 5759 5760 5763 5766 5768 5770 5772 5775 5777 5778 5781 5782 5784 5786 5787 5789 5790 5791 5793 5795 5795 5798 5801 5803 5805 5808 5810 5812 5815 5815 5812 5813 5816 5816 5816 5820 5828 5831 5830 5833 5835 5836 5836 5836 5837 5835 5833 5836 5840 5840 5841 5844 5844 5845
5701 5701 5701 5701 5701 5701 5702 5702 5703 5704 5705 5706 5707 5708 5709 5711 5712 5714 5715 5718 5720 5722 5724 5726 5728 5731 5733 5736 5738 5741 5744 5745 5748 5753 5754 5756 5758 5761 5764 5766 5768 5771 5773 5775 5777 5779 5781 5783 5785 5786 5788 5789 5790 5792 5793 5795 5798 5801 5802 5805 5807 5809 5811 5809 5808 5812 5814 5813 5815 5821 5827 5827 5827 5831 5834 5834 5834 5834 5833 5832 5829 5833 5839 5839 5839 5842 5843 5844
5696 5696 5696 5696 5696 5696 5696 5697 5698 5698 5699 5700 5702 5703 5704 5706 5707 5708 5710 5712 5714 5716 5718 5720 5722 5725 5727 5730 5732 5736 5738 5739 5743 5748 5750 5751 5754 5757 5760 5762 5765 5767 5770 5772 5774 5777 5778 5780 5782 5784 5786 5786 5788 5789 5790 5792 5795 5797 5800 5802 5804 5803 5805 5805 5806 5810 5809 5811 5816 5819 5822 5822 5825 5830 5832 5833 5831 5829 5830 5828 5827 5833 5838 5837 5838 5841 5842 5843
5692 5691 5691 5691 5691 5691 5691 5691 5692 5693 5694 5695 5696 5697 5699 5700 5702 5703 5705 5707 5709 5711 5712 5714 5716 5719 5722 5724 5727 5730 5733 5735 5739 5743 5745 5747 5749 5753 5756 5758 5761 5764 5766 5769 5771 5773 5775 5777 5779 5781 5783 5784 5785 5786 5788 5790 5792 5795 5797 5799 5801 5800 5803 5805 5804 5805 5807 5812 5815 5816 5818 5821 5826 5829 5830 5831 5827 5825 5827 5826 5827 5833 5835 5835 5837 5839 5840 5842
5688 5687 5686 5686 5686 5686 5686 5686 5687 5687 5688 5689 5690 5691 5693 5694 5696 5698 5700 5702 5704 5705 5707 5709 5711 5713 5716 5719 5722 5725 5729 5731 5734 5737 5740 5743 5745 5748 5752 5754 5757 5760 5762 5765 5767 5769 5771 5774 5776 5777 5780 5781 5783 5784 5785 5787 5789 5792 5795 5797 5798 5798 5800 5802 5801 5802 5806 5811 5812 5813 5817 5821 5825 5826 5827 5827 5824 5823 5825 5825 5827 5831 5832 5833 5835 5836 5838 5839
5682 5682 5681 5681 5681 5680 5680 5681 5681 5682 5682 5683 5684 5685 5686 5688 5690 5692 5694 5696 5698 5700 5702 5704 5706 5708 5711 5714 5716 5720 5726 5727 5728 5731 5735 5738 5741 5744 5746 5749 5752 5755 5758 5760 5763 5765 5768 5770 5772 5774 5776 5778 5780 5781 5783 5785 5786 5789 5792 5794 5795 5795 5797 5799 5798 5799 5803 5808 5810 5812 5815 5819 5821 5821 5822 5822 5822 5823 5823 5824 5827 5829 5830 5830 5832 5833 5834 5836
5677 5676 5676 5675 5675 5675 5675 5675 5676 5676 5677 5677 5678 5679 5680 5682 5684 5686 5688 5690 5692 5694 5696 5698 5700 5703 5706 5709 5712 5717 5722 5721 5723 5727 5729 5733 5737 5740 5742 5744 5748 5751 5754 5756 5759 5761 5764 5767 5769 5771 5773 5775 5777 5778 5780 5782 5783 5786 5789 5790 5791 5793 5794 5796 5796 5797 5801 5805 5807 5809 5812 5816 5816 5819 5821 5820 5821 5822 5821 5823 5826 5827 5828 5828 5829 5830 5831 5834
5671 5670 5670 5669 5669 5669 5669 5669 5670 5670 5671 5672 5672 5673 5674 5675 5677 5679 5682 5684 5686 5688 5690 5692 5695 5698 5701 5704 5708 5715 5717 5715 5717 5722 5724 5730 5734 5736 5737 5740 5743 5746 5749 5752 5755 5757 5760 5763 5765 5767 5769 5772 5774 5775 5777 5779 5782 5783 5785 5787 5788 5790 5791 5793 5794 5795 5799 5802 5804 5807 5810 5811 5813 5818 5819 5816 5818 5821 5820 5823 5825 5824 5826 5827 5827 5828 5830 5833
5665 5664 5663 5663 5662 5662 5662 5662 5663 5664 5665 5665 5666 5667 5668 5669 5671 5673 5675 5677 5679 5681 5684 5686 5689 5692 5695 5700 5706 5710 5709 5709 5713 5717 5721 5726 5729 5731 5733 5735 5738 5742 5744 5748 5750 5753 5756 5758 5761 5763 5766 5769 5770 5772 5774 5776 5779 5780 5781 5784 5787 5788 5789 5791 5791 5793 5797 5799 5801 5804 5807 5808 5810 5815 5816 5812 5816 5819 5818 5822 5824 5821 5822 5824 5825 5827 5829 5831
5659 5657 5656 5656 5655 5655 5656 5656 5656 5657 5658 5658 5659 5660 5661 5663 5664 5666 5668 5670 5673 5675 5677 5679 5682 5686 5690 5696 5703 5703 5702 5705 5710 5714 5718 5723 5725 5727 5729 5731 5734 5737 5740 5743 5746 5749 5752 5754 5757 5759 5762 5764 5766 5769 5771 5773 5776 5777 5779 5782 5785 5785 5787 5788 5789 5792 5794 5796 5799 5803 5806 5805 5807 5814 5813 5809 5813 5817 5818 5821 5822 5819 5818 5821 5822 5824 5826 5828
5653 5651 5650 5649 5648 5648 5649 5649 5649 5650 5650 5651 5652 5653 5654 5656 5658 5660 5661 5663 5666 5667 5670 5673 5676 5679 5684 5692 5696 5695 5697 5701 5706 5710 5713 5717 5719 5721 5725 5728 5730 5733 5736 5739 5742 5745 5747 5750 5753 5755 5758 5760 5762 5766 5767 5769 5773 5775 5777 5779 5782 5783 5784 5785 5787 5790 5792 5794 5797 5800 5804 5803 5806 5811 5809 5807 5813 5816 5817 5819 5818 5816 5818 5819 5820 5821 5823 5825
5646 5645 5644 5642 5642 5642 5642 5642 5643 5643 5643 5644 5644 5645 5647 5648 5650 5652 5654 5656 5658 5661 5663 5666 5669 5673 5678 5685 5688 5689 5691 5696 5702 5706 5708 5711 5714 5717 5721 5723 5726 5728 5732 5735 5738 5741 5743 5746 5748 5751 5754 5756 5759 5763 5764 5767 5770 5773 5774 5777 5780 5780 5782 5783 5784 5787 5790 5793 5794 5797 5802 5803 5805 5807 5805 5807 5812 5814 5816 5817 5816 5815 5816 5818 5818 5820 5822 5824
5640 5639 5637 5636 5635 5635 5635 5636 5636 5636 5636 5637 5637 5639 5640 5641 5643 5645 5647 5649 5651 5654 5657 5659 5663 5666 5672 5678 5680 5682 5685 5691 5697 5700 5702 5705 5708 5713 5716 5718 5721 5724 5727 5730 5734 5736 5738 5741 5744 5747 5749 5752 5757 5760 5761 5764 5767 5770 5772 5774 5777 5779 5781 5781 5781 5785 5789 5791 5791 5795 5801 5804 5805 5803 5803 5807 5810 5813 5813 5813 5814 5813 5814 5817 5817 5818 5820 5822
5633 5632 5631 5630 5629 5629 5629 5629 5629 5629 5630 5630 5631 5632 5633 5634 5636 5638 5640 5642 5645 5648 5650 5653 5656 5660 5667 5670 5672 5676 5681 5686 5690 5693 5696 5699 5703 5707 5710 5713 5716 5718 5722 5725 5729 5731 5734 5737 5739 5741 5745 5749 5754 5756 5757 5761 5764 5767 5770 5772 5775 5777 5780 5781 5779 5781 5788 5789 5789 5795 5800 5804 5805 5800 5800 5805 5808 5810 5810 5811 5812 5811 5812 5815 5815 5816 5817 5818
5627 5625 5624 5623 5623 5622 5622 5623 5623 5623 5623 5624 5625 5626 5627 5628 5630 5632 5634 5637 5639 5642 5644 5647 5651 5656 5660 5661 5664 5670 5673 5678 5683 5686 5690 5694 5698 5702 5705 5708 5711 5714 5717 5720 5724 5727 5730 5732 5733 5736 5742 5747 5751 5752 5754 5759 5763 5765 5767 5770 5773 5775 5778 5781 5778 5778 5784 5787 5788 5795 5797 5799 5801 5797 5797 5803 5805 5807 5808 5809 5810 5808 5810 5812 5812 5814 5814 5816
5620 5619 5618 5617 5616 5616 5616 5616 5617 5617 5617 5618 5619 5620 5621 5623 5624 5626 5628 5631 5633 5636 5638 5641 5645 5650 5651 5653 5658 5662 5665 5671 5675 5678 5683 5688 5692 5695 5699 5702 5705 5709 5712 5715 5720 5722 5724 5726 5727 5733 5740 5743 5747 5749 5752 5758 5761 5763 5765 5769 5772 5773 5777 5782 5779 5775 5780 5785 5787 5793 5794 5794 5796 5794 5796 5801 5803 5806 5806 5806 5807 5807 5809 5810 5810 5811 5812 5813
5613 5612 5611 5610 5610 5609 5609 5610 5610 5611 5612 5613 5614 5615 5616 5617 5619 5620 5623 5626 5628 5630 5633 5635 5639 5643 5645 5647 5651 5655 5659 5663 5667 5671 5676 5680 5684 5689 5692 5696 5699 5704 5707 5711 5715 5717 5719 5721 5725 5732 5737 5740 5744 5747 5751 5756 5758 5761 5763 5766 5770 5772 5776 5781 5779 5773 5776 5783 5786 5791 5793 5791 5792 5794 5795 5798 5801 5803 5804 5804 5805 5806 5808 5808 5808 5808 5809 5810
5607 5606 5605 5604 5603 5603 5603 5603 5604 5605 5606 5607 5608 5609 5610 5612 5613 5615 5618 5620 5623 5625 5627 5630 5633 5637 5640 5641 5644 5649 5653 5655 5660 5665 5669 5674 5679 5682 5686 5690 5694 5699 5703 5707 5709 5712 5715 5718 5724 5730 5734 5738 5741 5744 5748 5753 5755 5758 5762 5765 5767 5771 5774 5780 5779 5772 5773 5781 5785 5789 5791 5788 5789 5793 5793 5795 5799 5800 5801 5803 5803 5804 5805 5804 5805 5806 5807 5808
5600 5599 5598 5597 5596 5596 5596 5596 5597 5598 5600 5601 5602 5603 5604 5606 5608 5609 5612 5615 5617 5619 5622 5624 5627 5632 5635 5635 5638 5643 5645 5649 5654 5658 5662 5668 5672 5676 5681 5685 5690 5695 5699 5701 5703 5707 5710 5715 5722 5726 5730 5734 5738 5741 5745 5750 5752 5755 5760 5763 5765 5769 5774 5779 5780 5773 5772 5779 5783 5786 5787 5786 5787 5790 5791 5794 5797 5798 5799 5800 5801 5801 5801 5801 5803 5805 5806 5808
5592 5592 5591 5590 5589 5589 5589 5589 5590 5592 5594 5595 5596 5597 5599 5601 5602 5604 5606 5609 5612 5613 5616 5618 5621 5626 5628 5629 5632 5636 5638 5644 5649 5652 5657 5661 5666 5672 5675 5679 5685 5689 5692 5695 5699 5703 5707 5713 5718 5721 5725 5730 5734 5738 5741 5747 5749 5751 5756 5761 5765 5768 5772 5778 5779 5775 5773 5776 5782 5785 5784 5783 5784 5786 5789 5791 5793 5795 5797 5797 5798 5799 5799 5801 5802 5803 5805 5808
5585 5584 5583 5583 5582 5583 5582 5583 5584 5585 5587 5588 5589 5591 5593 5595 5596 5598 5601 5603 5606 5607 5610 5612 5615 5620 5622 5623 5626 5630 5633 5638 5643 5647 5651 5656 5662 5667 5669 5675 5681 5683 5686 5692 5697 5700 5705 5711 5714 5717 5722 5727 5730 5733 5738 5743 5746 5748 5752 5758 5764 5766 5769 5776 5778 5776 5774 5774 5780 5785 5781 5779 5781 5783 5786 5788 5789 5792 5794 5795 5796 5798 5798 5800 5800 5800 5803 5806
5576 5576 5576 5576 5576 5576 5575 5576 5577 5579 5581 5582 5583 5585 5587 5589 5590 5592 5594 5596 5600 5601 5602 5606 5609 5613 5616 5616 5620 5625 5628 5631 5636 5641 5645 5650 5657 5661 5665 5671 5675 5678 5684 5690 5694 5697 5702 5706 5710 5715 5719 5723 5727 5730 5734 5740 5743 5746 5748 5753 5761 5765 5769 5774 5775 5774 5773 5772 5776 5779 5776 5776 5778 5780 5783 5785 5787 5789 5791 5793 5794 5795 5796 5797 5797 5798 5800 5802
5568 5568 5568 5568 5569 5569 5569 5570 5571 5573 5574 5575 5577 5579 5581 5583 5584 5587 5588 5590 5594 5594 5596 5600 5603 5607 5609 5610 5615 5619 5621 5626 5632 5636 5639 5645 5651 5656 5661 5664 5669 5675 5681 5686 5690 5693 5697 5701 5706 5711 5715 5719 5724 5726 5731 5738 5740 5742 5745 5749 5757 5763 5768 5771 5769 5769 5770 5771 5774 5774 5774 5775 5776 5777 5780 5782 5785 5786 5787 5790 5791 5793 5794 5794 5796 5796 5797 5799
5559 5560 5561 5561 5562 5562 5563 5564 5566 5567 5567 5569 5572 5574 5575 5577 5579 5581 5583 5585 5589 5590 5591 5595 5597 5600 5604 5605 5610 5613 5618 5624 5627 5629 5633 5639 5645 5651 5655 5659 5665 5672 5677 5681 5684 5688 5693 5697 5701 5707 5712 5715 5720 5723 5728 5734 5737 5739 5744 5748 5753 5759 5767 5769 5765 5764 5768 5772 5775 5774 5773 5774 5774 5776 5777 5779 5782 5782 5784 5786 5788 5791 5792 5793 5795 5796 5796 5798
5551 5552 5553 5554 5554 5556 5557 5558 5559 5560 5562 5564 5567 5569 5571 5573 5575 5577 5579 5582 5586 5586 5587 5590 5592 5596 5599 5601 5604 5609 5614 5618 5620 5624 5629 5635 5640 5645 5649 5655 5662 5669 5673 5675 5680 5685 5690 5693 5697 5703 5708 5711 5716 5720 5725 5731 5734 5737 5742 5746 5750 5755 5763 5768 5763 5761 5767 5770 5772 5772 5771 5771 5772 5774 5775 5776 5778 5779 5781 5783 5784 5788 5791 5792 5793 5794 5796 5797
5542 5544 5545 5546 5548 5549 5551 5553 5554 5555 5558 5561 5563 5565 5567 5569 5571 5573 5575 5579 5583 5583 5584 5586 5589 5592 5594 5596 5600 5605 5608 5611 5617 5622 5626 5630 5635 5641 5646 5652 5659 5665 5669 5673 5679 5684 5686 5690 5695 5700 5704 5708 5712 5718 5724 5728 5730 5736 5741 5745 5750 5754 5759 5764 5762 5760 5764 5765 5767 5770 5769 5769 5770 5771 5771 5773 5774 5774 5776 5779 5782 5786 5788 5790 5791 5793 5794 5795
5534 5536 5538 5539 5541 5543 5545 5547 5549 5551 5554 5556 5559 5561 5563 5566 5568 5570 5572 5577 5580 5581 5582 5584 5586 5588 5589 5591 5596 5600 5604 5608 5614 5618 5620 5626 5632 5637 5643 5649 5655 5661 5666 5671 5677 5682 5684 5688 5694 5696 5700 5706 5711 5716 5721 5724 5728 5735 5741 5744 5748 5750 5753 5759 5760 5759 5760 5759 5762 5767 5768 5768 5768 5767 5767 5770 5771 5770 5773 5777 5781 5784 5786 5787 5789 5790 5792 5793
5526 5528 5530 5532 5534 5537 5540 5542 5543 5547 5551 5553 5556 5559 5561 5563 5565 5567 5571 5575 5578 5579 5580 5583 5584 5585 5587 5589 5592 5597 5600 5605 5609 5612 5616 5622 5628 5633 5638 5643 5649 5656 5662 5667 5672 5680 5683 5686 5690 5693 5697 5704 5709 5713 5717 5721 5726 5732 5738 5742 5745 5747 5749 5754 5756 5756 5755 5754 5757 5762 5764 5765 5766 5765 5765 5768 5768 5767 5770 5776 5779 5782 5784 5785 5786 5788 5790 5791
5518 5521 5523 5525 5528 5532 5535 5537 5539 5544 5548 5551 5554 5556 5558 5560 5562 5566 5570 5573 5576 5578 5580 5582 5583 5584 5586 5588 5591 5595 5598 5602 5606 5609 5613 5619 5623 5628 5634 5639 5644 5650 5656 5662 5668 5675 5680 5683 5687 5691 5694 5700 5703 5707 5714 5718 5723 5728 5732 5737 5741 5743 5745 5748 5750 5750 5750 5752 5756 5759 5761 5761 5764 5763 5762 5764 5764 5763 5768 5773 5777 5780 5781 5782 5783 5785 5787 5789
5511 5514 5516 5519 5523 5526 5529 5533 5537 5542 5546 5548 5551 5553 5555 5559 5562 5565 5568 5571 5575 5577 5579 5581 5582 5583 5585 5586 5589 5593 5596 5599 5604 5607 5611 5616 5621 5626 5632 5637 5643 5648 5654 5660 5666 5671 5676 5680 5683 5688 5690 5693 5697 5703 5710 5713 5718 5723 5726 5729 5734 5736 5739 5742 5744 5745 5746 5750 5755 5758 5759 5759 5761 5759 5756 5757 5757 5759 5766 5772 5775 5778 5779 5779 5781 5783 5785 5786
5505 5507 5510 5514 5518 5522 5526 5531 5535 5539 5543 5545 5548 5551 5554 5558 5561 5563 5566 5569 5572 5575 5577 5579 5580 5582 5584 5585 5589 5591 5594 5598 5604 5607 5609 5614 5618 5622 5629 5634 5640 5647 5654 5660 5664 5667 5672 5675 5678 5683 5685 5688 5694 5701 5707 5710 5714 5719 5722 5726 5729 5731 5735 5738 5740 5743 5746 5749 5753 5756 5756 5756 5756 5753 5752 5754 5755 5759 5768 5772 5774 5775 5776 5777 5778 5780 5782 5784
5499 5502 5506 5510 5514 5518 5523 5528 5533 5536 5540 5543 5547 5550 5553 5557 5559 5562 5564 5567 5570 5574 5576 5577 5579 5581 5582 5585 5589 5591 5593 5597 5603 5607 5608 5611 5615 5619 5626 5632 5638 5645 5652 5657 5661 5665 5670 5674 5677 5681 5683 5686 5692 5698 5705 5709 5713 5718 5721 5724 5727 5730 5735 5738 5739 5743 5747 5750 5752 5752 5751 5751 5751 5750 5749 5752 5754 5760 5767 5769 5770 5771 5773 5774 5776 5778 5780 5782
5494 5497 5502 5506 5511 5516 5521 5526 5530 5534 5538 5541 5545 5549 5552 5555 5557 5561 5564 5567 5569 5572 5574 5576 5578 5580 5581 5584 5588 5591 5594 5598 5603 5607 5608 5610 5615 5618 5624 5631 5637 5643 5648 5654 5659 5662 5668 5673 5674 5677 5681 5685 5688 5694 5702 5706 5710 5715 5718 5721 5725 5730 5735 5736 5737 5741 5744 5746 5747 5746 5746 5746 5747 5747 5747 5749 5752 5758 5763 5765 5766 5768 5770 5772 5774 5776 5778 5780
5491 5494 5499 5505 5510 5514 5519 5524 5528 5532 5536 5540 5544 5549 5552 5553 5556 5559 5563 5566 5569 5571 5573 5575 5576 5579 5581 5583 5586 5590 5594 5598 5602 5605 5607 5610 5613 5616 5623 5630 5636 5641 5646 5652 5657 5660 5667 5672 5673 5674 5679 5683 5686 5693 5700 5705 5708 5712 5715 5719 5723 5729 5733 5734 5735 5737 5739 5742 5743 5742 5743 5744 5744 5744 5744 5747 5751 5755 5759 5762 5764 5765 5768 5770 5772 5774 5776 5778
5489 5493 5499 5505 5510 5514 5519 5523 5527 5531 5535 5538 5543 5547 5550 5551 5555 5558 5561 5564 5567 5569 5571 5572 5574 5576 5580 5582 5585 5590 5595 5597 5600 5604 5607 5610 5613 5616 5622 5628 5633 5639 5645 5650 5655 5659 5666 5672 5672 5672 5677 5682 5685 5692 5698 5702 5706 5711 5716 5719 5721 5724 5728 5730 5731 5733 5735 5738 5739 5739 5740 5742 5742 5741 5742 5747 5751 5753 5757 5760 5762 5763 5766 5768 5770 5772 5774 5776
5489 5494 5500 5505 5510 5514 5518 5522 5527 5530 5533 5537 5542 5546 5548 5551 5555 5557 5560 5563 5565 5567 5569 5571 5573 5575 5577 5580 5584 5590 5596 5597 5598 5603 5607 5610 5613 5616 5620 5626 5631 5638 5643 5648 5653 5658 5663 5669 5670 5671 5676 5681 5683 5687 5693 5698 5702 5708 5714 5717 5717 5721 5725 5727 5728 5730 5732 5735 5736 5736 5737 5738 5738 5739 5742 5746 5750 5752 5755 5757 5759 5761 5763 5766 5768 5770 5773 5774
5490 5496 5502 5506 5511 5515 5519 5522 5526 5529 5533 5538 5542 5545 5548 5551 5554 5556 5558 5561 5563 5565 5567 5569 5572 5574 5577 5580 5582 5586 5595 5599 5600 5603 5606 5609 5614 5617 5621 5627 5632 5637 5642 5647 5653 5656 5660 5665 5668 5669 5674 5677 5679 5683 5689 5694 5698 5702 5707 5710 5712 5716 5722 5725 5727 5728 5730 5733 5734 5734 5734 5735 5736 5738 5741 5744 5747 5749 5751 5752 5755 5758 5761 5763 5766 5768 5770 5771
5493 5498 5503 5508 5512 5515 5519 5522 5525 5529 5534 5538 5542 5544 5547 5550 5553 5555 5557 5559 5561 5563 5566 5568 5571 5574 5576 5580 5581 5583 5590 5598 5601 5602 5605 5608 5612 5615 5620 5625 5631 5636 5641 5646 5650 5654 5657 5661 5664 5666 5670 5672 5676 5682 5688 5692 5696 5699 5702 5706 5709 5712 5718 5722 5724 5725 5727 5730 5732 5732 5732 5732 5734 5736 5738 5740 5743 5745 5747 5749 5752 5755 5758 5761 5763 5765 5767 5768
5494 5499 5504 5509 5513 5516 5519 5522 5526 5530 5534 5538 5541 5544 5548 5550 5553 5555 5556 5558 5560 5563 5565 5568 5571 5574 5576 5579 5582 5583 5587 5595 5600 5601 5604 5607 5610 5614 5619 5625 5631 5636 5640 5644 5648 5652 5655 5658 5661 5664 5667 5671 5676 5681 5686 5691 5696 5698 5700 5704 5708 5711 5715 5718 5721 5723 5725 5727 5729 5730 5729 5730 5732 5734 5734 5736 5739 5741 5744 5746 5749 5752 5755 5758 5761 5762 5764 5766
5496 5501 5505 5509 5513 5516 5519 5523 5526 5530 5534 5538 5541 5544 5548 5550 5552 5554 5556 5558 5560 5562 5565 5567 5570 5573 5576 5578 5582 5584 5586 5592 5597 5600 5603 5606 5610 5614 5618 5624 5630 5634 5639 5644 5647 5650 5652 5655 5659 5663 5667 5671 5676 5680 5683 5688 5693 5696 5697 5701 5706 5710 5713 5716 5720 5723 5724 5725 5727 5727 5726 5726 5729 5730 5730 5732 5736 5738 5740 5743 5746 5749 5752 5755 5757 5759 5761 5763
5498 5502 5506 5510 5514 5517 5520 5523 5527 5531 5535 5538 5542 5545 5547 5550 5552 5554 5556 5558 5560 5561 5564 5567 5569 5572 5575 5578 5581 5583 5586 5589 5594 5599 5602 5605 5609 5614 5618 5623 5628 5633 5638 5642 5645 5648 5650 5653 5657 5661 5664 5667 5672 5676 5679 5682 5687 5692 5695 5698 5703 5709 5712 5714 5717 5719 5719 5721 5723 5723 5722 5723 5726 5727 5727 5730 5734 5736 5738 5740 5743 5746 5749 5751 5754 5756 5759 5761
5501 5505 5508 5511 5515 5518 5521 5524 5527 5531 5535 5539 5542 5545 5547 5549 5552 5554 5556 5558 5559 5561 5564 5567 5569 5572 5575 5578 5580 5583 5585 5588 5593 5598 5602 5606 5609 5614 5618 5622 5627 5632 5636 5640 5643 5647 5650 5653 5656 5659 5661 5663 5666 5669 5672 5676 5682 5687 5692 5695 5700 5705 5709 5712 5714 5714 5715 5718 5720 5719 5719 5720 5722 5723 5725 5728 5732 5734 5736 5738 5740 5743 5746 5749 5751 5754 5756 5758
5502 5506 5509 5512 5516 5519 5522 5525 5528 5532 5536 5540 5543 5546 5548 5550 5552 5554 5557 5558 5559 5561 5564 5567 5570 5572 5575 5578 5581 5584 5586 5590 5593 5598 5602 5606 5610 5613 5618 5622 5627 5631 5634 5638 5641 5645 5649 5652 5656 5658 5661 5663 5665 5668 5672 5676 5679 5683 5688 5692 5696 5700 5704 5709 5711 5711 5712 5715 5716 5715 5716 5717 5719 5720 5723 5726 5729 5731 5733 5736 5738 5741 5744 5746 5749 5751 5753 5755
5504 5508 5512 5515 5518 5520 5523 5527 5531 5534 5538 5541 5544 5546 5548 5550 5553 5555 5556 5558 5559 5562 5565 5568 5571 5573 5576 5579 5582 5584 5587 5591 5595 5598 5601 5605 5609 5613 5617 5622 5627 5630 5634 5637 5640 5643 5647 5651 5654 5657 5660 5663 5666 5670 5673 5675 5678 5683 5687 5691 5694 5697 5701 5706 5708 5709 5711 5713 5712 5712 5713 5715 5716 5719 5722 5724 5727 5729 5731 5733 5736 5739 5742 5744 5746 5748 5750 5752
5506 5510 5514 5518 5521 5523 5526 5530 5533 5536 5539 5542 5545 5547 5549 5551 5553 5555 5556 5558 5560 5563 5566 5569 5571 5573 5576 5579 5582 5585 5588 5592 5595 5598 5600 5604 5609 5613 5617 5622 5626 5629 5632 5635 5638 5642 5646 5649 5652 5656 5659 5662 5664 5668 5673 5676 5679 5682 5686 5689 5692 5695 5698 5703 5706 5706 5707 5708 5708 5709 5711 5712 5714 5717 5719 5722 5725 5727 5729 5731 5734 5736 5739 5741 5743 5745 5747 5748
5509 5512 5516 5520 5523 5526 5529 5532 5535 5538 5541 5544 5546 5548 5550 5552 5553 5555 5557 5558 5560 5563 5566 5569 5572 5574 5577 5580 5583 5586 5589 5592 5594 5597 5601 5605 5609 5613 5616 5620 5624 5628 5631 5634 5638 5642 5645 5647 5651 5655 5657 5660 5662 5666 5671 5675 5677 5680 5685 5689 5692 5695 5697 5699 5700 5701 5703 5705 5705 5707 5708 5710 5712 5714 5717 5720 5723 5725 5727 5729 5731 5734 5736 5738 5740 5742 5744 5745
5511 5514 5518 5522 5525 5528 5532 5534 5537 5540 5542 5545 5547 5549 5551 5553 5554 5556 5557 5559 5561 5563 5566 5569 5572 5575 5578 5580 5583 5586 5589 5592 5595 5599 5604 5607 5610 5614 5616 5619 5623 5627 5631 5634 5637 5640 5642 5646 5650 5653 5656 5659 5661 5664 5668 5672 5676 5680 5683 5686 5689 5691 5692 5693 5694 5696 5699 5702 5702 5704 5706 5709 5711 5713 5714 5717 5720 5723 5725 5727 5729 5731 5733 5735 5737 5739 5741 5742
5513 5517 5520 5524 5527 5530 5533 5536 5539 5542 5545 5547 5549 5551 5552 5554 5555 5556 5558 5559 5561 5563 5566 5569 5572 5575 5578 5581 5583 5586 5589 5593 5596 5600 5604 5608 5612 5615 5618 5621 5623 5626 5630 5633 5636 5638 5641 5644 5648 5651 5654 5657 5659 5661 5664 5668 5672 5675 5677 5679 5682 5684 5685 5687 5690 5692 5695 5698 5700 5702 5705 5708 5710 5711 5713 5715 5718 5720 5722 5724 5727 5729 5731 5733 5734 5736 5737 5738
5517 5520 5523 5526 5529 5532 5535 5537 5540 5544 5547 5549 5550 5552 5553 5554 5555 5556 5558 5559 5561 5563 5566 5569 5572 5575 5578 5582 5584 5586 5590 5594 5597 5600 5604 5608 5612 5615 5617 5621 5624 5627 5630 5632 5634 5637 5640 5643 5647 5649 5652 5655 5658 5660 5662 5664 5666 5669 5672 5675 5677 5678 5679 5682 5685 5688 5692 5695 5697 5700 5704 5706 5708 5709 5711 5713 5715 5717 5720 5722 5724 5726 5728 5730 5731 5732 5734 5735